Wind_Speed
21 20 19 19 18 18 17 17 17 17 17 17 18 17 17 16 15 14 13 13 12 12 12 12 11 11 10 9 8 7 7 6 6 6 6 7 7 8 9 11 12 13 13 14 13 13 13 13 13 15 17 18 17 18 21 22 22 20 19 19 18 17 16 16 15 15 16 17 17 17 16 15 15 14 14 14 13 13 13 12 12 12 12 12 12
25 22 19 19 18 18 17 17 18 17 17 17 18 17 17 16 15 14 13 13 12 12 12 11 11 11 10 9 8 8 7 7 7 7 8 9 9 9 10 11 12 13 13 14 14 13 13 13 14 15 17 18 19 22 23 23 22 20 19 19 18 17 16 15 15 15 16 17 18 18 17 16 15 14 14 14 14 14 13 13 13 12 13 13 13
26 23 20 19 18 18 17 17 18 18 17 17 18 17 17 16 15 14 13 13 13 13 12 11 11 11 10 9 9 8 8 9 10 9 11 11 10 10 11 11 12 11 12 14 14 13 13 14 16 17 18 21 23 24 24 23 21 20 19 18 17 16 15 14 14 14 15 16 17 18 18 16 15 14 14 14 14 14 14 14 13 14 14 14 15
24 23 22 20 19 18 18 18 18 18 17 17 18 17 16 16 15 14 13 13 13 13 12 11 10 10 10 9 9 9 10 11 11 11 12 12 11 11 11 11 11 10 11 13 14 16 16 16 18 19 22 25 26 25 24 22 21 20 19 18 16 15 14 13 12 13 13 14 15 16 17 16 14 13 13 14 14 14 14 15 15 16 16 16 17
22 22 22 21 20 18 18 18 18 19 18 17 17 17 16 15 15 14 14 13 13 12 12 11 10 10 9 9 11 11 11 11 11 12 12 12 12 11 11 11 11 10 11 13 14 16 18 18 20 21 24 26 26 25 23 22 21 20 19 17 16 15 14 13 11 11 11 13 13 15 16 15 14 13 13 14 14 15 16 16 17 17 17 17 17
20 20 21 21 20 19 19 18 18 18 18 17 17 17 16 15 15 14 13 13 13 12 12 11 10 9 9 10 11 11 11 10 10 11 11 11 11 11 11 11 10 10 13 15 14 16 19 20 21 22 24 25 25 24 23 22 21 19 18 17 16 16 15 13 11 9 10 11 12 13 14 14 14 14 14 14 15 16 17 17 17 17 17 16 16
19 19 20 21 21 20 20 19 18 18 18 17 17 17 16 16 15 14 13 13 13 12 11 11 10 9 9 9 10 11 10 10 9 9 11 10 11 10 10 10 10 11 14 15 15 17 20 21 22 23 24 24 24 23 22 21 20 19 17 16 16 16 14 12 10 8 9 10 10 12 11 12 13 14 15 15 15 16 16 16 16 16 16 15 14
19 21 21 21 22 21 20 19 18 18 17 17 17 17 16 16 15 14 13 12 12 12 11 11 9 9 9 9 9 10 10 9 8 8 9 9 10 9 9 10 10 12 15 15 17 19 20 21 23 23 23 23 23 22 21 20 19 18 16 16 15 15 13 11 8 7 8 9 9 9 9 10 11 13 16 15 15 15 15 15 15 15 15 14 14
18 22 22 21 22 22 21 20 19 18 17 17 17 16 16 15 15 14 13 12 12 12 11 10 9 8 9 9 9 9 9 8 7 7 8 8 9 9 9 9 11 14 16 18 20 21 21 22 23 23 22 22 22 21 20 19 18 16 15 15 14 13 11 9 7 6 8 8 7 8 8 9 10 13 15 15 14 14 14 14 14 14 13 13 13
19 22 23 22 22 22 22 21 19 18 17 17 16 16 16 15 15 14 13 12 12 12 11 10 9 8 9 8 8 8 8 8 7 6 7 7 8 8 9 9 12 16 18 20 22 21 21 22 22 22 21 21 21 20 20 18 17 16 15 14 12 11 10 8 6 5 7 8 6 6 7 8 10 13 14 14 14 13 13 13 13 13 13 13 13
19 21 23 23 22 22 22 21 20 19 18 17 16 16 16 15 15 14 13 12 12 11 11 10 8 9 9 8 7 7 8 7 7 6 6 6 7 8 9 9 14 17 19 21 21 21 21 21 21 21 21 20 20 19 19 18 17 16 15 13 12 10 9 7 5 3 6 6 5 5 6 7 10 12 12 14 13 13 13 12 12 12 12 13 13
20 21 24 23 23 22 21 21 20 19 18 17 16 16 16 16 15 14 13 12 12 11 11 10 9 9 8 8 7 7 7 7 7 6 6 6 7 8 9 11 15 18 20 21 21 21 21 21 20 20 20 20 19 18 18 17 16 15 13 12 10 8 7 7 5 2 4 3 2 3 4 6 9 11 12 13 13 13 12 12 11 11 11 11 12
21 22 24 24 23 22 22 21 20 20 19 18 16 16 16 15 15 14 14 12 11 11 10 10 10 9 8 7 7 7 7 6 6 6 6 6 7 8 9 12 16 19 21 21 20 20 20 20 20 19 19 19 18 17 16 16 15 13 13 11 8 6 7 6 5 2 1 1 1 1 3 6 8 11 12 13 13 13 12 11 10 10 11 11 11
20 24 25 24 24 22 22 21 21 20 19 18 17 16 16 15 15 14 13 12 11 10 10 10 10 8 7 7 7 7 6 6 6 6 6 6 7 8 9 12 16 19 20 20 20 19 19 19 18 18 17 17 16 16 15 15 14 13 12 9 6 5 4 3 3 2 2 2 1 2 4 6 9 11 12 13 13 13 12 12 11 11 11 11 12
19 24 26 25 24 23 23 21 21 21 20 18 17 16 16 15 14 14 13 12 11 10 10 9 9 8 7 7 7 6 6 7 6 6 6 6 6 7 9 12 15 18 20 20 19 19 18 18 17 16 16 15 15 15 14 14 13 12 10 7 5 4 3 3 4 5 4 2 1 3 5 7 9 11 12 13 13 13 12 12 12 12 11 12 12
18 24 26 25 25 24 24 22 21 21 20 19 18 17 16 15 15 14 13 12 11 10 9 8 8 7 7 7 7 7 7 7 7 6 6 6 6 7 9 12 15 17 19 19 18 18 17 17 16 15 14 14 13 13 14 14 12 10 8 5 5 4 3 3 4 4 3 2 3 4 5 7 9 11 13 13 13 13 12 12 12 11 12 12 11
16 21 23 24 25 25 24 23 21 21 21 19 18 17 16 16 15 15 13 12 11 10 9 8 7 7 7 7 7 8 8 8 7 7 6 7 7 7 9 11 14 17 18 18 17 17 16 16 15 14 13 12 12 11 13 13 11 9 7 4 5 4 2 2 2 1 2 4 5 6 7 8 10 12 13 12 13 13 13 12 11 11 11 11 11
13 15 17 21 24 25 24 23 22 22 22 21 20 18 17 16 15 15 13 12 11 10 8 7 7 7 8 8 8 8 8 8 8 8 7 7 7 7 9 11 14 16 17 17 16 16 16 15 14 13 12 11 10 10 12 12 10 8 7 5 5 4 2 1 0 0 2 5 7 8 9 9 10 12 12 12 12 12 11 11 10 10 10 10 10
13 12 13 18 23 24 24 23 23 23 23 23 21 19 18 17 16 15 13 12 11 10 8 7 7 8 8 8 8 8 8 9 9 9 8 8 8 7 9 11 13 14 16 16 15 15 14 14 13 12 11 10 10 10 10 10 10 8 7 6 6 6 4 2 1 2 3 6 8 9 8 9 10 11 12 12 11 10 10 10 10 9 9 10 10
13 13 12 15 20 23 24 23 23 23 23 23 22 20 18 17 16 15 13 13 11 10 9 8 8 9 9 9 9 9 9 10 10 10 9 9 8 8 8 10 12 14 15 15 14 13 12 12 11 11 11 11 10 10 10 10 10 8 7 8 8 6 4 3 3 4 5 6 7 7 7 8 10 10 11 11 10 9 9 9 9 9 10 10 10
15 14 13 15 19 23 24 23 23 23 23 24 22 21 19 18 17 15 14 13 11 10 9 8 9 10 10 10 10 10 10 10 10 10 10 10 9 9 9 10 12 13 14 13 13 12 12 12 11 12 11 11 11 11 11 10 9 8 7 8 8 5 4 4 4 5 6 7 7 6 7 8 9 9 9 9 9 9 8 8 9 9 10 9 10
17 16 14 16 20 23 24 23 23 23 24 24 22 20 19 18 17 16 14 13 12 10 10 9 10 11 11 12 12 12 12 11 11 11 10 10 10 9 10 10 11 12 13 13 13 12 12 12 12 12 12 12 12 11 10 10 9 8 7 7 6 5 4 4 5 6 7 7 7 7 7 7 8 8 8 7 7 8 8 8 8 8 8 9 10
19 18 16 17 21 24 25 24 24 24 24 23 22 20 19 18 17 15 14 13 12 11 11 10 11 12 13 13 13 13 12 12 11 11 11 10 10 10 10 11 11 12 13 13 13 13 13 12 12 11 12 13 12 10 10 9 8 7 7 4 3 3 3 4 5 6 7 7 7 7 7 7 7 6 6 6 6 7 9 9 7 7 8 9 11
21 19 17 18 22 25 25 24 24 25 25 23 22 20 18 17 16 15 14 13 12 12 12 12 13 13 14 14 13 11 12 12 11 11 11 10 10 11 11 12 12 12 13 13 13 13 13 12 11 10 11 13 11 10 9 8 7 6 4 1 2 3 4 4 5 6 6 6 6 7 7 7 7 5 5 5 5 6 8 8 7 8 9 11 13
21 19 18 18 21 24 25 25 25 25 24 23 22 20 19 17 16 16 14 14 13 14 14 14 15 14 15 15 13 11 12 12 10 10 10 9 10 11 12 13 13 14 14 14 14 14 14 13 13 12 12 12 11 9 9 9 7 5 3 1 3 3 2 2 4 5 5 5 6 7 8 7 7 6 6 5 4 4 5 7 9 11 13 14 16
22 21 20 19 19 21 23 24 24 24 24 23 21 20 19 17 17 17 15 15 15 15 16 16 16 15 15 15 14 12 12 12 10 9 9 9 9 11 13 14 14 15 16 16 16 16 16 15 14 12 12 11 9 8 9 7 6 5 3 2 3 2 1 1 3 4 4 5 6 7 8 8 6 6 7 6 6 6 6 9 12 13 14 15 16
24 22 22 20 19 20 21 23 23 24 24 23 22 21 19 17 17 17 16 16 16 17 17 17 17 17 15 14 14 13 12 11 10 8 8 9 10 11 12 12 14 15 16 17 17 16 15 14 13 11 9 8 7 8 8 5 5 5 4 3 3 4 2 0 2 3 5 5 6 7 7 7 6 6 6 6 7 7 8 10 12 13 13 14 14
24 23 24 23 21 19 19 20 22 24 24 24 23 22 19 18 19 18 17 16 16 17 18 18 18 17 15 14 13 13 11 9 9 8 8 10 10 11 12 12 13 14 16 16 16 15 14 12 10 9 7 5 6 5 5 4 5 5 5 4 5 5 3 2 3 5 6 6 6 6 7 6 6 6 6 7 7 8 8 9 11 12 12 12 13
25 24 24 24 23 20 19 18 21 25 25 25 24 22 20 20 20 19 17 16 16 17 18 19 18 16 15 14 12 10 9 8 8 9 9 10 10 11 11 11 12 12 14 14 14 13 12 11 9 8 5 3 3 3 4 6 6 6 5 5 6 6 4 3 5 7 7 7 6 6 7 8 7 6 6 7 7 7 8 8 10 11 12 13 13
26 24 24 25 24 22 21 18 20 25 26 25 25 23 22 21 21 19 18 17 17 18 19 19 18 17 14 13 11 9 8 9 9 9 10 10 10 11 11 11 11 12 13 13 13 12 11 9 8 6 4 4 4 5 8 9 8 7 6 6 6 6 4 5 7 8 8 8 7 7 8 9 8 6 7 7 7 8 8 9 10 11 12 13 14
27 26 25 25 25 24 22 19 20 26 27 25 25 24 22 22 21 20 19 18 18 19 20 19 18 16 13 11 10 10 10 10 10 10 10 10 11 12 12 12 12 12 12 12 11 10 9 8 6 6 6 7 7 8 10 10 9 8 7 6 6 5 5 7 8 9 9 9 9 8 10 9 7 7 7 7 8 8 9 10 10 11 12 12 13
29 28 26 26 26 24 22 21 21 25 27 24 25 24 23 22 22 22 19 19 19 20 20 18 16 15 12 11 11 12 12 11 10 10 10 11 12 13 13 12 12 12 11 11 10 10 9 9 9 9 10 11 10 9 10 10 10 9 8 6 5 5 6 9 10 11 11 11 10 10 11 9 7 7 7 7 8 9 10 10 10 11 11 11 12
32 29 28 28 27 24 23 23 22 26 27 24 25 25 24 23 23 22 20 19 19 19 19 17 16 14 13 13 12 12 13 12 11 10 11 11 12 14 13 13 12 12 12 11 11 11 11 11 12 13 14 14 12 11 10 10 10 9 8 7 6 6 8 9 11 11 11 11 11 11 10 8 7 7 7 7 8 9 10 10 10 11 10 11 11
34 32 30 29 27 24 24 25 24 27 28 25 25 25 24 24 24 22 20 19 18 18 17 16 16 16 15 14 13 12 13 13 11 11 11 11 12 14 14 14 14 13 13 12 13 12 12 13 14 15 14 14 13 12 11 11 10 9 9 8 7 7 8 8 9 10 11 11 11 11 10 8 6 6 7 8 8 9 10 10 10 10 10 10 10
35 34 32 30 27 24 24 27 26 27 28 26 26 25 25 25 24 23 21 19 18 17 17 17 18 17 16 14 13 13 13 13 12 11 12 12 13 14 15 15 15 14 13 13 13 13 13 14 15 16 15 13 13 12 12 12 12 11 10 9 8 9 9 9 10 10 10 10 10 11 10 8 6 5 6 7 8 8 9 8 8 9 9 9 9
37 35 32 29 27 24 25 28 28 29 29 27 27 26 24 24 24 23 21 20 20 19 18 19 18 18 17 15 14 14 14 13 13 13 13 13 14 15 15 15 14 14 14 15 14 14 15 14 14 15 15 14 13 14 14 13 13 12 11 10 10 10 10 10 9 9 8 8 9 9 8 7 6 5 5 6 6 7 7 7 7 7 7 7 8
37 34 31 30 28 25 26 29 31 31 29 28 28 26 24 23 23 24 23 23 23 21 19 20 19 19 19 16 15 15 15 14 14 14 14 14 15 16 16 16 15 15 15 16 15 15 15 16 15 14 14 14 13 15 15 14 12 12 11 10 10 9 9 8 7 7 7 7 6 6 6 6 6 6 5 6 6 6 5 5 6 6 6 6 7
36 34 30 30 28 26 28 31 32 32 30 29 28 25 24 24 23 24 24 24 24 22 21 21 19 19 18 17 16 16 15 15 14 14 14 15 16 17 17 17 17 17 17 17 16 16 16 16 16 15 15 14 14 14 14 14 12 12 11 10 9 8 7 6 5 6 4 3 3 3 4 4 4 5 5 5 6 5 5 6 7 7 7 9 10
35 34 31 30 29 26 28 32 34 33 31 29 27 25 25 25 25 25 25 25 24 23 23 21 19 18 17 17 17 16 16 15 15 15 15 16 17 17 17 17 17 18 18 18 17 17 16 16 16 17 17 15 14 15 14 14 13 12 11 10 8 7 6 6 5 4 3 2 1 1 1 2 3 4 4 4 4 5 6 6 7 8 9 11 12
34 34 32 31 30 27 29 34 35 35 33 31 29 28 28 28 29 29 28 27 25 25 23 21 20 18 17 17 17 16 16 16 16 17 17 18 17 18 18 17 18 19 18 16 17 17 16 15 15 17 18 18 16 15 14 13 13 11 10 9 8 7 6 5 4 3 2 2 1 1 1 1 2 2 2 2 3 4 5 5 5 8 10 11 12
34 34 34 33 31 28 29 34 36 35 35 35 33 32 33 32 33 33 31 28 27 26 25 24 22 20 18 18 18 17 16 16 17 17 18 19 19 18 18 18 17 18 17 16 16 16 15 14 15 16 19 20 18 16 15 13 12 10 9 9 9 8 6 5 5 3 2 1 2 2 2 1 2 2 0 1 2 3 4 4 5 7 9 11 13
35 35 35 34 31 29 29 33 37 37 37 37 35 35 35 34 34 34 31 29 27 26 26 25 23 21 19 19 20 19 17 18 18 18 18 18 18 18 18 17 17 17 17 17 17 17 15 15 15 17 19 20 18 17 16 13 11 10 9 10 10 9 6 5 5 4 3 2 2 3 2 3 3 2 1 3 4 4 4 5 6 7 9 12 15
34 36 36 34 33 31 30 32 36 38 38 37 36 36 35 34 33 32 30 28 26 25 26 24 23 21 20 20 20 19 19 19 20 20 19 19 19 18 18 16 16 16 18 19 19 18 17 16 15 17 20 20 17 16 16 14 13 11 9 9 11 10 7 6 7 6 5 4 4 3 4 5 5 3 3 6 8 8 7 7 7 8 11 14 17
36 36 37 36 35 33 32 32 34 38 40 38 37 35 34 33 31 29 29 27 25 25 26 25 23 22 21 21 20 19 20 21 21 21 21 20 20 20 18 16 16 16 18 19 20 20 19 18 16 16 19 21 20 18 17 16 15 13 11 10 11 10 8 8 9 8 7 6 5 4 5 6 8 8 9 9 9 9 8 7 8 10 13 16 18
38 38 39 38 36 35 33 32 33 37 40 39 39 37 34 34 32 31 31 30 27 27 28 27 25 23 23 22 21 20 21 21 22 22 22 22 22 21 19 17 17 17 17 18 19 20 20 20 19 17 18 21 21 20 19 18 16 14 13 10 10 10 9 9 10 10 9 7 5 4 4 5 6 9 11 11 9 8 8 7 10 12 14 16 17
39 39 39 37 36 34 34 33 33 36 39 40 40 39 37 36 36 36 35 34 32 30 31 30 27 25 23 22 22 22 22 22 23 23 23 23 22 22 21 19 17 17 17 17 17 18 20 21 20 19 18 20 20 20 19 18 17 17 16 13 10 8 8 10 12 10 10 8 6 5 3 3 4 7 9 10 8 7 7 8 10 12 13 14 15
41 40 38 36 35 34 34 34 35 35 37 40 41 41 39 38 38 38 37 35 33 31 30 28 26 24 23 23 23 24 23 23 24 24 23 23 23 22 21 19 18 18 18 17 17 18 19 21 21 20 20 20 20 19 18 16 16 17 17 15 12 8 6 9 10 9 10 11 9 6 4 2 2 4 6 7 6 6 8 9 9 10 11 11 14
43 41 39 38 36 35 35 35 36 35 37 40 41 42 41 39 39 39 37 35 32 29 29 27 26 24 23 24 24 25 25 24 25 25 24 24 23 22 20 19 19 19 18 18 18 18 19 21 21 21 21 21 20 19 17 15 15 15 15 15 14 11 9 9 9 8 9 9 9 8 6 4 2 2 3 4 5 5 7 7 6 8 8 9 13
43 41 40 39 37 36 36 37 37 35 36 39 41 42 41 39 39 39 38 34 30 28 28 28 26 25 24 25 26 26 25 26 25 25 24 23 22 20 19 18 19 19 19 18 17 18 19 19 19 20 21 21 20 18 16 14 14 15 16 16 16 15 13 11 10 10 9 7 8 9 8 5 3 2 3 4 4 4 5 4 4 5 6 8 12
44 42 41 39 39 38 38 39 38 37 37 38 40 42 41 40 39 39 38 34 31 30 28 28 28 26 25 26 26 26 26 26 26 25 24 22 21 19 18 18 18 18 17 18 18 18 18 18 18 19 20 20 19 17 15 14 15 16 17 18 17 16 14 12 12 12 10 8 7 9 9 7 4 4 5 4 4 3 2 1 2 3 4 9 12
45 44 43 41 40 40 40 40 40 38 37 37 40 41 41 40 39 39 37 35 32 31 30 30 30 28 27 28 27 26 26 27 26 25 23 22 21 19 19 19 17 15 16 19 19 17 17 17 16 16 17 18 17 16 15 14 14 15 17 17 16 15 13 12 12 12 11 10 8 9 10 8 7 7 7 6 4 2 1 1 0 2 5 9 11
Wind_Direction
173 181 175 164 163 166 167 160 154 153 152 146 138 135 132 128 127 124 122 117 113 110 106 103 100 96 90 86 79 74 71 66 61 66 87 102 112 119 119 122 123 117 112 109 114 122 119 111 109 117 128 135 133 125 123 123 120 120 121 118 114 109 106 102 97 90 84 77 69 62 53 45 40 37 36 35 35 35 34 33 29 27 27 26 26
168 175 175 165 165 166 168 162 154 154 152 146 139 137 133 131 130 126 124 118 114 112 108 101 96 91 84 79 73 66 58 55 56 69 92 101 106 113 115 115 119 119 118 120 123 125 121 117 115 117 125 131 129 126 125 125 124 124 120 116 113 109 106 100 93 86 81 75 69 61 52 44 38 34 33 32 31 30 29 27 26 24 23 23 22
165 170 173 167 167 168 169 163 154 154 153 147 141 139 136 134 132 129 125 120 117 115 111 103 96 89 84 78 68 59 55 56 57 77 100 104 106 109 114 113 113 115 118 121 121 121 120 117 115 117 123 128 128 127 127 127 126 124 120 117 114 110 105 97 90 83 77 70 65 60 51 42 37 35 33 32 29 28 25 23 22 20 19 19 17
169 168 171 168 167 171 169 164 157 155 153 148 142 140 139 137 134 131 127 122 121 119 115 106 98 92 87 76 64 62 64 61 57 76 101 104 107 109 113 112 111 112 117 123 120 119 117 115 115 117 122 126 128 128 128 127 125 123 119 116 113 109 102 95 88 83 76 65 61 57 49 42 37 35 32 29 27 24 22 19 18 16 15 14 14
172 170 173 169 168 172 170 166 161 157 153 149 144 142 142 140 136 133 131 127 126 123 118 109 102 96 88 74 70 71 66 63 62 73 93 102 107 110 112 111 112 112 117 124 121 119 118 116 117 119 123 126 128 129 128 127 125 121 117 113 108 101 93 87 81 78 72 63 58 55 49 42 36 33 30 27 24 22 20 18 16 15 13 13 13
180 177 176 172 169 171 171 168 164 158 153 149 146 145 144 141 138 136 134 131 129 127 121 113 107 99 88 79 77 74 64 64 69 77 91 102 106 109 112 110 110 114 120 123 121 120 119 118 119 122 124 126 128 128 127 126 123 119 115 110 103 96 89 82 75 69 65 60 55 52 48 42 35 29 27 26 25 23 21 19 16 14 13 12 12
193 189 183 177 172 171 172 169 166 160 153 151 149 148 146 143 141 139 137 134 131 129 124 116 110 102 89 83 76 70 65 65 72 83 95 104 107 109 112 112 112 118 122 123 124 123 121 120 122 124 125 126 127 127 126 124 120 118 114 108 103 98 92 87 81 66 55 53 48 47 43 35 30 27 25 25 26 25 22 19 17 15 13 10 9
196 196 191 182 175 173 174 170 167 162 156 153 152 151 147 145 144 142 141 137 134 132 125 119 113 104 93 84 76 70 67 68 73 86 99 107 110 111 113 115 118 122 125 125 127 126 123 122 123 125 126 126 126 126 125 122 120 117 113 110 109 106 99 95 91 70 53 49 44 41 32 22 22 21 22 24 24 23 20 19 17 15 12 9 6
193 195 193 186 179 175 174 172 169 164 158 155 155 153 149 148 147 146 144 141 138 133 126 121 116 103 96 89 80 72 70 74 78 86 98 111 115 116 116 118 123 127 129 131 130 127 126 125 126 127 127 127 126 126 124 123 121 117 115 115 114 112 110 108 100 80 64 59 55 41 23 16 15 11 14 18 17 17 17 16 15 13 10 6 3
190 191 191 189 183 177 175 173 171 165 161 158 158 154 152 152 151 150 147 146 141 134 128 123 117 106 101 97 86 76 76 78 83 89 97 111 120 122 122 123 129 133 134 134 132 129 129 128 129 129 129 128 127 127 126 124 121 118 119 119 117 118 121 118 109 85 67 66 67 44 16 10 8 2 5 8 8 10 12 12 10 8 5 1 358
188 190 190 190 186 180 177 175 172 166 164 162 160 157 155 156 154 153 150 149 144 136 129 125 119 113 110 105 93 84 82 82 86 92 100 113 122 126 128 129 135 137 137 136 134 132 132 131 131 131 131 130 129 129 128 125 121 120 121 122 122 126 129 122 118 77 57 63 58 36 12 2 357 353 356 360 0 4 6 6 4 2 358 353 351
187 190 189 189 186 181 179 177 173 168 167 166 163 160 159 158 156 155 152 150 146 138 131 126 121 119 119 112 102 94 88 87 90 94 104 116 124 130 133 134 139 141 140 139 136 135 134 134 134 133 132 132 131 131 130 127 124 124 126 128 129 136 140 131 133 88 49 66 54 40 2 340 344 346 350 353 354 357 358 357 355 351 347 344 346
187 190 190 188 186 181 180 179 175 170 170 168 165 163 161 160 159 156 154 151 146 140 133 127 125 125 123 116 108 102 97 95 96 99 106 116 126 133 139 141 143 144 143 141 139 138 137 136 136 135 134 134 133 133 132 130 128 129 133 133 133 143 149 146 143 115 56 107 117 9 323 325 339 343 346 349 349 349 348 348 346 342 343 344 348
191 189 189 186 185 181 179 181 177 172 173 171 167 166 163 162 161 159 155 152 147 140 135 130 130 130 127 122 115 112 110 109 106 105 108 116 127 135 143 147 147 147 146 145 143 142 141 139 138 138 137 136 135 134 133 132 133 136 139 137 137 144 149 151 133 99 91 124 179 285 314 329 339 340 342 344 344 344 342 342 342 344 348 346 347
201 189 186 184 184 181 179 181 178 175 175 172 169 168 165 164 162 160 157 153 149 142 138 134 136 134 130 126 126 129 123 120 118 113 112 117 127 136 145 151 152 151 150 149 147 145 144 142 141 140 139 138 136 135 134 134 137 143 145 142 145 144 122 116 105 91 88 95 291 304 324 335 337 338 340 341 340 339 339 339 341 345 345 340 343
195 187 183 183 185 182 180 180 179 177 176 174 171 170 166 166 164 162 160 155 151 146 142 139 141 137 131 130 134 138 134 131 127 121 116 118 127 137 148 155 157 156 155 154 151 148 147 144 142 141 140 138 137 135 135 136 141 149 148 147 165 159 119 114 112 99 71 22 333 326 334 340 339 339 340 338 337 337 337 337 340 344 340 340 347
176 183 184 184 187 184 182 179 177 176 176 175 172 172 168 167 166 164 162 157 154 149 148 147 147 138 132 135 140 142 140 139 133 129 121 120 125 136 150 157 161 162 160 158 155 152 149 146 142 140 140 138 138 138 138 142 150 156 152 162 187 177 144 116 112 103 22 356 340 335 335 337 337 339 337 335 335 334 336 336 342 347 345 348 355
164 176 185 188 190 188 185 178 176 176 175 174 173 172 169 168 168 166 163 159 158 155 155 155 151 139 136 140 142 142 142 143 136 132 126 121 123 135 151 158 164 165 164 163 159 156 151 147 142 139 137 136 137 138 140 148 157 164 165 179 202 197 184 149 88 333 355 343 333 330 327 329 334 336 334 333 333 335 341 346 354 356 354 359 6
170 173 183 191 195 193 188 180 177 176 176 175 173 172 170 170 168 167 164 162 164 163 164 163 152 140 141 143 141 141 141 143 138 134 129 123 124 133 150 159 165 167 168 167 164 160 154 148 142 137 136 136 138 139 145 154 162 170 176 189 208 209 204 223 283 310 333 336 331 324 322 328 332 332 334 336 340 350 359 2 5 4 2 5 7
181 182 188 196 200 198 190 183 180 178 177 175 174 173 170 170 168 166 165 166 168 168 171 165 152 143 144 146 143 142 140 140 138 136 132 128 128 132 145 157 163 168 169 169 168 164 158 151 143 140 140 140 141 145 152 159 167 173 181 195 207 213 218 244 292 313 325 334 331 321 320 325 328 334 341 348 357 6 10 11 11 8 7 3 357
186 189 196 201 202 200 193 186 182 179 176 175 175 174 171 169 167 166 167 171 171 171 172 165 154 148 150 151 147 142 139 136 136 135 134 133 133 133 139 150 160 166 168 170 169 165 161 154 149 149 147 146 144 146 152 159 165 171 189 202 208 219 235 260 296 321 330 336 333 322 320 322 329 342 353 3 8 7 11 17 11 4 7 359 350
189 191 196 201 202 198 193 188 181 177 175 175 175 174 172 168 166 168 172 175 174 173 170 162 155 154 156 155 150 145 138 133 133 131 133 136 136 135 137 143 154 163 167 168 168 166 163 159 157 158 155 148 142 141 148 155 162 174 195 206 215 230 253 284 311 329 332 330 327 321 321 321 328 345 356 4 6 5 11 10 0 358 1 350 345
193 196 193 195 202 197 191 188 181 176 175 175 174 175 172 167 165 168 174 176 175 173 166 161 157 158 161 157 154 151 143 136 134 129 128 135 139 140 139 140 145 155 164 166 167 167 165 164 164 164 158 149 141 142 150 156 165 180 195 206 234 256 295 318 329 334 331 326 322 318 315 315 323 346 355 356 1 1 3 358 350 351 349 339 337
195 197 190 189 199 195 190 186 181 177 175 174 174 173 170 166 166 169 177 177 175 171 164 162 161 163 165 160 156 155 151 142 137 132 126 131 140 144 144 141 139 144 152 159 164 165 165 165 163 158 156 157 156 158 163 166 175 190 195 204 290 297 314 331 343 340 333 332 326 318 311 310 316 327 330 339 354 356 360 352 333 331 332 328 329
191 190 183 181 191 193 189 184 181 179 176 174 172 171 170 168 167 171 178 177 175 171 163 164 165 168 171 166 159 158 157 147 141 137 129 130 140 147 147 144 142 142 144 150 156 158 160 160 156 153 155 163 168 172 175 178 193 209 206 258 303 296 311 348 355 346 337 335 327 321 316 314 313 304 302 307 316 333 348 330 314 319 323 326 329
187 186 180 173 176 182 187 186 183 181 176 173 171 170 170 169 168 172 178 176 175 172 167 168 169 171 175 175 171 167 160 152 148 143 139 142 144 149 151 149 149 149 149 150 152 153 154 155 156 158 162 167 173 181 181 183 204 215 219 267 277 239 151 26 354 340 327 322 320 324 323 316 307 300 300 299 298 301 306 305 309 319 327 332 337
190 184 178 172 169 172 181 187 186 182 176 173 172 171 170 170 171 175 178 176 175 174 172 171 170 173 174 175 176 172 163 157 154 150 154 161 157 156 155 154 156 156 155 155 154 154 155 157 159 163 170 175 173 178 173 180 213 211 220 237 226 203 176 168 317 309 300 304 318 328 326 316 309 311 314 314 311 310 311 312 318 328 338 343 346
194 185 179 175 172 173 179 186 190 186 178 176 175 172 171 172 175 177 178 179 177 176 175 173 173 175 174 171 174 172 165 160 159 164 174 173 167 166 165 162 164 163 161 160 159 163 165 164 166 166 172 181 175 176 166 172 204 209 211 204 202 210 206 220 261 278 288 301 326 337 338 338 336 334 333 329 325 326 330 331 333 340 352 358 357
197 189 183 179 175 178 184 190 194 189 181 179 175 172 174 176 178 178 177 179 178 175 176 177 176 180 179 173 173 169 167 170 172 179 185 181 173 173 176 172 172 174 172 170 169 176 178 174 172 164 167 192 186 177 162 172 194 210 202 182 195 209 212 233 258 274 289 304 332 352 355 357 351 346 345 347 348 348 351 351 350 352 360 5 4
200 193 189 185 178 181 191 196 196 190 183 180 176 174 177 180 179 177 176 176 175 177 181 183 181 184 184 174 170 171 181 190 189 189 189 189 183 181 186 183 184 186 180 178 180 184 182 178 174 167 183 197 189 172 166 180 199 216 206 180 195 208 224 251 267 278 288 309 336 353 355 357 356 356 359 2 2 1 2 1 2 1 3 6 5
199 196 192 189 183 186 194 195 195 190 184 181 177 176 179 182 180 176 175 173 173 178 183 185 186 186 183 174 175 185 196 199 198 201 196 195 192 190 191 188 190 190 183 182 185 183 174 170 171 180 191 184 191 185 175 189 201 212 208 187 196 212 241 267 278 286 296 313 329 338 342 350 3 7 3 3 3 6 9 6 6 6 6 5 6
199 199 194 191 188 191 197 195 196 191 185 182 179 180 182 182 181 178 177 174 175 179 181 184 189 187 181 181 188 195 201 201 203 208 203 198 196 195 195 192 192 189 182 180 179 176 169 163 162 170 173 169 180 182 179 195 202 204 203 196 201 221 255 274 281 285 293 303 312 322 333 347 6 10 3 3 7 11 11 10 9 7 7 6 9
199 199 194 193 192 194 198 197 198 193 187 183 181 182 183 183 182 181 180 179 179 180 180 184 191 188 186 193 200 202 202 202 204 208 207 202 199 198 198 196 190 184 179 176 174 173 170 162 158 164 168 169 176 183 188 199 205 206 205 211 217 232 256 268 275 279 286 296 305 316 329 347 3 9 9 9 12 15 13 13 11 7 10 11 13
197 196 195 193 193 196 199 199 199 193 188 185 185 186 183 183 183 182 185 185 185 184 181 187 195 191 191 200 210 211 206 205 208 211 208 204 201 198 197 196 190 184 178 176 177 172 170 167 167 171 171 175 183 190 198 198 202 210 214 227 239 250 265 274 281 284 291 298 306 316 329 344 354 5 11 12 14 16 16 15 11 8 13 16 16
198 195 195 194 192 195 200 201 200 194 190 188 189 189 184 182 182 185 189 188 190 191 186 191 196 193 195 204 213 216 211 210 213 214 212 210 206 197 196 196 192 186 177 177 183 177 177 179 179 181 179 184 191 192 199 203 205 213 223 238 255 267 277 288 292 294 299 303 309 318 328 338 348 2 11 14 14 15 16 14 16 17 16 14 15
200 195 194 194 191 196 202 202 201 197 192 192 193 191 187 183 183 189 191 191 197 200 195 195 198 198 200 206 212 214 213 211 212 213 213 212 209 201 198 197 191 188 183 185 188 184 187 187 185 189 188 190 195 193 197 206 211 217 228 242 255 267 276 285 290 292 298 303 307 315 323 330 344 4 15 19 20 19 17 18 27 32 26 16 16
199 195 194 194 191 196 202 202 202 198 194 195 195 192 191 188 187 192 192 196 203 204 201 198 200 203 205 209 210 211 210 209 210 211 210 208 207 204 200 195 193 196 195 194 192 190 194 193 189 193 197 196 198 198 199 207 217 224 232 242 254 264 272 276 272 272 283 292 299 306 314 326 343 358 9 18 25 26 24 32 39 41 43 35 31
198 197 198 197 194 196 201 201 201 198 196 197 196 193 195 194 193 194 195 201 205 205 203 200 201 204 207 210 210 211 209 206 207 208 207 204 202 200 198 195 196 201 201 197 195 195 197 199 198 197 201 203 206 209 209 214 221 227 234 242 253 258 256 253 244 248 256 268 288 296 304 323 341 353 5 12 19 27 30 37 38 35 38 41 40
198 199 200 199 196 196 199 199 199 198 196 197 196 195 197 197 196 196 199 205 205 204 204 203 203 203 204 208 212 215 212 207 203 202 204 205 202 199 197 194 195 200 203 201 201 200 198 200 204 204 203 204 211 217 219 223 225 229 240 244 239 231 229 231 223 210 190 183 235 266 292 318 330 344 358 1 15 31 35 36 36 38 39 41 40
199 199 199 198 196 195 197 197 198 196 194 194 194 194 197 197 198 198 201 204 202 203 204 204 207 206 206 207 213 218 217 213 205 200 203 205 203 200 197 195 197 203 208 209 209 208 204 202 208 211 210 207 208 215 221 227 230 233 240 235 219 206 205 205 184 167 157 148 128 104 82 327 321 331 337 347 26 44 47 42 40 48 46 43 40
199 200 198 196 195 196 197 196 196 196 194 193 193 195 197 197 198 200 201 201 200 203 203 203 207 207 207 208 211 217 217 216 211 206 206 205 205 206 207 207 209 212 215 217 217 217 216 214 216 216 216 215 210 210 216 222 228 234 231 218 206 197 191 178 159 151 129 116 99 79 64 22 344 332 295 40 58 68 64 51 46 54 50 43 39
199 201 199 196 196 199 199 196 196 197 196 196 195 197 200 200 199 200 201 201 200 204 205 204 206 207 210 209 209 213 213 212 212 213 213 211 213 215 216 217 218 217 218 220 222 225 224 222 221 214 214 218 218 215 215 219 226 233 230 216 201 191 188 172 158 153 146 128 94 76 48 29 9 351 100 77 69 75 68 49 45 52 48 43 36
200 201 200 197 197 199 199 198 198 198 199 199 199 199 203 205 203 201 202 203 203 206 209 208 207 208 212 211 208 210 211 209 210 213 215 216 219 221 221 222 222 219 218 219 223 227 227 223 220 214 211 212 215 217 217 221 224 221 214 209 200 193 194 185 168 163 156 135 107 87 61 57 58 59 72 67 63 61 56 49 46 45 43 40 31
200 200 200 198 198 198 199 199 200 201 201 201 203 202 204 206 206 205 206 207 207 207 210 211 210 210 212 211 208 208 211 210 210 212 213 217 221 224 225 225 224 220 217 220 223 227 227 224 220 218 216 213 212 214 215 222 225 219 208 196 194 197 203 195 179 172 160 138 115 93 83 88 82 68 59 54 54 51 43 42 41 40 39 34 25
201 203 201 199 199 199 200 201 201 203 203 202 205 205 204 206 205 205 207 208 208 208 208 207 207 210 211 210 208 208 211 212 213 214 213 217 221 224 227 229 228 224 221 224 226 229 229 227 225 223 222 221 220 219 220 225 223 220 216 200 191 202 211 195 180 176 169 155 141 126 110 103 81 60 52 47 45 42 32 29 34 37 36 29 18
203 205 202 200 200 200 201 202 203 206 206 204 207 208 206 207 206 204 205 205 205 207 208 207 206 208 209 209 208 208 211 212 214 216 216 218 222 225 229 232 234 233 233 233 234 235 231 228 228 228 226 225 226 226 228 229 221 215 218 213 206 211 210 193 185 184 185 187 184 165 137 91 65 51 50 46 39 33 24 24 30 32 31 24 11
204 203 202 201 201 201 201 203 205 207 208 207 208 208 208 209 209 207 207 207 205 207 208 209 209 209 208 207 209 209 211 213 215 216 217 219 223 227 231 235 239 241 242 244 245 242 231 226 228 229 228 226 227 229 230 231 224 217 216 216 217 217 211 202 199 197 194 199 199 184 170 137 87 55 53 51 43 32 25 28 28 26 26 17 2
203 203 202 201 201 202 203 205 206 207 210 210 209 210 210 210 211 210 211 211 210 209 207 207 209 210 208 207 210 212 212 214 217 218 219 221 223 227 233 239 244 246 249 253 251 240 227 223 225 227 228 228 229 230 230 231 230 225 220 220 222 223 222 220 216 212 206 201 199 192 184 175 156 90 79 71 59 41 35 37 24 17 18 4 352
204 206 204 201 201 203 203 205 207 207 210 212 211 212 212 212 212 212 212 212 213 212 209 206 207 210 209 209 212 214 214 215 217 220 221 223 225 229 235 241 245 248 252 254 245 230 223 221 222 224 227 230 231 231 232 236 235 233 229 227 226 226 228 230 225 223 218 208 203 191 175 169 174 152 136 104 80 63 50 42 17 12 3 350 345
205 206 203 200 201 202 203 205 207 208 210 213 213 213 213 213 213 213 213 212 212 211 209 208 208 209 209 210 212 214 216 217 218 219 221 224 227 232 237 241 245 250 251 246 233 222 219 219 218 220 225 230 233 234 238 242 241 236 233 233 231 230 234 234 231 230 220 210 203 183 167 160 153 157 156 126 108 104 64 19 5 3 341 340 336
201 201 199 200 202 202 203 206 208 208 210 213 214 213 213 213 214 214 214 214 213 209 208 208 208 209 211 212 214 215 217 220 222 223 224 228 232 235 238 240 245 251 247 236 228 221 217 217 217 217 221 227 231 235 238 239 239 233 228 230 234 237 243 242 241 241 233 226 217 190 175 166 157 162 159 141 142 155 129 147 284 314 321 326 323
Height
1533 1536 1537 1538 1540 1541 1542 1543 1543 1544 1545 1545 1545 1546 1546 1547 1548 1548 1549 1550 1550 1550 1550 1550 1550 1550 1550 1550 1550 1550 1550 1550 1549 1549 1548 1548 1548 1548 1548 1548 1548 1548 1549 1550 1551 1551 1551 1551 1550 1550 1550 1551 1552 1553 1554 1555 1556 1557 1558 1558 1558 1558 1558 1558 1558 1558 1558 1558 1557 1557 1557 1557 1557 1556 1556 1555 1555 1555 1554 1554 1553 1553 1552 1551 1551
1532 1535 1537 1538 1539 1541 1542 1543 1543 1544 1545 1545 1546 1546 1546 1547 1548 1549 1549 1550 1550 1551 1551 1551 1551 1551 1551 1551 1551 1550 1550 1550 1549 1548 1548 1548 1548 1548 1548 1549 1549 1549 1549 1550 1551 1551 1551 1551 1551 1551 1551 1552 1553 1554 1555 1556 1557 1558 1558 1559 1559 1559 1559 1559 1559 1559 1559 1558 1558 1558 1558 1558 1558 1557 1557 1556 1556 1555 1555 1554 1554 1553 1553 1552 1551
1532 1534 1536 1538 1539 1541 1542 1542 1543 1544 1545 1546 1546 1546 1547 1547 1548 1549 1549 1550 1551 1551 1551 1551 1551 1551 1551 1551 1551 1551 1551 1550 1549 1549 1548 1548 1548 1549 1549 1549 1549 1550 1550 1550 1551 1552 1552 1552 1552 1551 1552 1552 1554 1555 1556 1557 1558 1559 1559 1559 1560 1560 1560 1560 1560 1560 1559 1559 1559 1559 1559 1559 1559 1559 1558 1557 1557 1556 1556 1555 1555 1554 1553 1552 1551
1533 1534 1536 1537 1539 1541 1542 1543 1543 1544 1545 1546 1546 1547 1547 1548 1548 1549 1549 1550 1551 1551 1552 1551 1552 1551 1552 1552 1552 1552 1551 1551 1550 1549 1549 1549 1549 1549 1549 1550 1550 1550 1550 1551 1551 1552 1552 1552 1553 1553 1553 1554 1555 1556 1557 1558 1559 1560 1560 1560 1561 1561 1561 1561 1561 1560 1560 1560 1560 1560 1560 1560 1560 1560 1559 1558 1558 1557 1557 1556 1555 1554 1553 1552 1551
1534 1534 1535 1537 1539 1540 1542 1543 1543 1544 1545 1546 1547 1547 1547 1548 1548 1549 1550 1550 1551 1552 1552 1552 1552 1552 1552 1552 1553 1552 1552 1551 1551 1550 1550 1550 1549 1550 1550 1550 1551 1551 1551 1551 1552 1552 1553 1553 1554 1554 1554 1555 1556 1557 1558 1559 1560 1560 1561 1561 1562 1562 1562 1562 1561 1561 1561 1561 1561 1561 1561 1561 1561 1561 1560 1559 1559 1558 1557 1556 1555 1554 1553 1553 1552
1534 1535 1535 1536 1538 1540 1542 1542 1543 1544 1545 1546 1547 1547 1548 1548 1549 1549 1550 1551 1551 1552 1552 1552 1552 1552 1553 1553 1553 1553 1553 1552 1551 1551 1551 1550 1550 1550 1551 1551 1551 1551 1551 1552 1553 1553 1553 1554 1555 1555 1556 1557 1558 1559 1559 1560 1561 1561 1562 1562 1562 1563 1562 1562 1562 1562 1562 1562 1562 1562 1562 1562 1562 1562 1561 1560 1559 1559 1558 1557 1556 1555 1555 1554 1553
1534 1535 1536 1536 1538 1539 1541 1542 1543 1544 1545 1546 1547 1547 1548 1548 1549 1550 1550 1551 1551 1552 1552 1552 1552 1553 1553 1553 1554 1553 1553 1553 1552 1552 1552 1551 1551 1551 1551 1551 1552 1552 1552 1553 1554 1554 1554 1555 1556 1557 1557 1558 1559 1560 1560 1561 1562 1562 1563 1563 1563 1563 1563 1563 1562 1562 1562 1563 1563 1562 1563 1562 1563 1562 1562 1561 1560 1559 1558 1558 1557 1556 1556 1555 1554
1534 1535 1536 1536 1537 1539 1541 1542 1543 1544 1545 1546 1547 1547 1548 1548 1549 1550 1550 1551 1552 1552 1552 1552 1553 1553 1554 1554 1554 1554 1554 1553 1553 1553 1553 1552 1552 1552 1552 1552 1553 1553 1553 1553 1554 1555 1556 1556 1557 1558 1559 1559 1560 1561 1561 1562 1563 1563 1563 1564 1564 1564 1564 1563 1563 1563 1563 1563 1563 1563 1563 1563 1563 1563 1562 1561 1561 1560 1559 1559 1558 1557 1556 1556 1555
1533 1534 1535 1536 1537 1539 1540 1542 1543 1544 1545 1546 1547 1547 1548 1549 1549 1550 1550 1551 1551 1552 1552 1553 1553 1554 1554 1555 1555 1555 1555 1554 1554 1554 1554 1553 1553 1553 1553 1553 1553 1553 1554 1554 1555 1556 1557 1557 1558 1559 1560 1560 1561 1562 1562 1563 1564 1564 1564 1564 1565 1565 1565 1564 1563 1563 1564 1564 1564 1564 1564 1564 1564 1563 1563 1562 1561 1561 1560 1560 1559 1558 1557 1556 1555
1532 1533 1535 1536 1537 1538 1540 1541 1543 1544 1545 1546 1547 1547 1548 1549 1550 1550 1550 1551 1551 1552 1552 1553 1553 1554 1555 1555 1555 1555 1555 1555 1555 1555 1554 1554 1554 1554 1554 1554 1554 1554 1555 1555 1556 1557 1558 1558 1559 1560 1561 1561 1562 1563 1564 1564 1565 1565 1565 1565 1565 1565 1565 1564 1564 1564 1564 1564 1564 1565 1564 1564 1564 1563 1563 1562 1562 1561 1561 1560 1559 1558 1557 1556 1555
1532 1533 1534 1535 1537 1538 1539 1541 1542 1544 1545 1546 1546 1547 1548 1549 1550 1550 1550 1551 1551 1552 1552 1553 1554 1554 1555 1555 1556 1556 1556 1556 1555 1555 1555 1555 1555 1555 1555 1555 1555 1555 1556 1556 1557 1558 1559 1559 1560 1561 1562 1562 1563 1564 1565 1565 1566 1566 1566 1566 1566 1565 1565 1565 1564 1564 1565 1565 1565 1565 1565 1565 1564 1564 1563 1563 1562 1562 1561 1560 1559 1558 1557 1556 1555
1531 1532 1534 1535 1536 1538 1539 1541 1542 1543 1544 1545 1546 1547 1548 1549 1550 1550 1551 1551 1551 1552 1553 1553 1554 1555 1555 1556 1556 1556 1556 1556 1556 1556 1556 1556 1556 1556 1556 1556 1556 1556 1557 1557 1558 1559 1559 1560 1561 1562 1563 1563 1564 1565 1566 1566 1566 1566 1566 1566 1566 1566 1565 1565 1565 1565 1565 1565 1565 1565 1565 1565 1565 1564 1564 1563 1562 1562 1561 1560 1559 1558 1558 1556 1556
1530 1531 1533 1534 1536 1538 1539 1540 1542 1543 1544 1545 1546 1547 1548 1549 1550 1550 1551 1551 1552 1552 1553 1554 1554 1555 1555 1556 1556 1557 1557 1556 1556 1556 1556 1556 1556 1556 1556 1557 1557 1557 1558 1558 1559 1560 1560 1561 1562 1563 1563 1564 1565 1566 1566 1567 1567 1567 1567 1567 1566 1566 1565 1566 1566 1566 1565 1565 1565 1565 1566 1565 1565 1564 1564 1563 1563 1562 1561 1560 1560 1559 1558 1557 1556
1528 1530 1532 1534 1535 1537 1539 1540 1542 1543 1544 1545 1546 1547 1548 1549 1550 1550 1551 1551 1552 1553 1553 1554 1554 1555 1556 1556 1557 1557 1557 1557 1557 1556 1557 1557 1557 1557 1557 1557 1558 1558 1559 1559 1560 1560 1561 1562 1563 1564 1564 1565 1566 1566 1567 1567 1567 1567 1567 1567 1566 1566 1566 1566 1566 1566 1566 1566 1566 1566 1566 1565 1565 1564 1564 1563 1563 1562 1561 1560 1559 1558 1558 1557 1556
1528 1529 1531 1533 1535 1537 1538 1540 1541 1543 1544 1545 1546 1547 1548 1549 1550 1550 1551 1551 1552 1553 1553 1554 1555 1555 1556 1556 1557 1557 1557 1557 1557 1557 1557 1557 1557 1557 1557 1558 1558 1559 1559 1560 1560 1561 1562 1563 1563 1564 1565 1566 1566 1567 1568 1568 1568 1567 1567 1567 1566 1566 1566 1567 1566 1567 1567 1566 1566 1566 1566 1565 1565 1564 1564 1563 1562 1562 1561 1560 1559 1558 1558 1557 1556
1527 1528 1530 1532 1534 1536 1538 1540 1542 1543 1543 1545 1546 1547 1548 1549 1550 1550 1551 1551 1552 1553 1553 1554 1555 1555 1556 1556 1556 1557 1557 1557 1557 1557 1557 1557 1557 1557 1558 1558 1559 1559 1560 1560 1561 1562 1562 1563 1564 1565 1566 1567 1567 1568 1568 1568 1568 1567 1567 1567 1566 1566 1567 1567 1567 1567 1567 1567 1567 1566 1566 1566 1565 1564 1564 1563 1562 1561 1561 1560 1559 1558 1557 1556 1556
1527 1529 1530 1532 1533 1535 1537 1539 1541 1543 1543 1544 1546 1547 1548 1549 1549 1550 1551 1552 1552 1553 1553 1554 1555 1555 1556 1556 1556 1557 1557 1557 1557 1557 1557 1557 1557 1558 1558 1558 1559 1560 1560 1561 1561 1562 1563 1564 1564 1565 1566 1567 1568 1568 1569 1569 1568 1568 1568 1567 1566 1567 1567 1567 1568 1567 1567 1567 1567 1566 1566 1566 1565 1564 1564 1563 1562 1561 1561 1560 1559 1558 1557 1556 1556
1528 1529 1530 1532 1533 1534 1536 1538 1540 1542 1543 1544 1545 1546 1547 1548 1549 1550 1551 1552 1552 1553 1553 1554 1555 1555 1555 1556 1556 1557 1557 1557 1557 1557 1557 1557 1557 1558 1558 1559 1559 1560 1560 1561 1562 1562 1563 1564 1565 1566 1567 1568 1568 1569 1569 1569 1568 1568 1568 1567 1567 1567 1568 1568 1568 1568 1567 1567 1567 1566 1566 1565 1565 1564 1564 1563 1562 1561 1560 1560 1559 1558 1557 1556 1556
1528 1529 1530 1531 1532 1534 1535 1537 1539 1541 1542 1543 1545 1546 1547 1548 1549 1550 1551 1552 1552 1553 1553 1554 1554 1555 1555 1556 1556 1556 1557 1557 1557 1557 1558 1558 1558 1558 1558 1559 1559 1560 1561 1561 1562 1563 1564 1564 1565 1566 1567 1568 1568 1568 1569 1569 1569 1568 1568 1567 1567 1568 1568 1568 1568 1568 1568 1567 1567 1566 1566 1565 1565 1564 1563 1563 1562 1561 1561 1560 1559 1558 1557 1556 1556
1527 1528 1530 1531 1532 1533 1535 1537 1538 1540 1542 1543 1544 1545 1546 1547 1549 1550 1551 1551 1552 1553 1553 1554 1554 1555 1555 1555 1556 1556 1556 1557 1557 1557 1558 1558 1558 1558 1558 1559 1560 1560 1561 1562 1562 1563 1564 1565 1565 1566 1567 1567 1568 1568 1568 1569 1569 1568 1568 1567 1568 1568 1568 1569 1568 1568 1568 1567 1567 1566 1566 1565 1565 1564 1563 1563 1562 1561 1561 1560 1559 1558 1557 1556 1555
1526 1527 1529 1530 1531 1532 1534 1536 1537 1539 1541 1542 1544 1544 1546 1547 1548 1549 1550 1551 1551 1552 1553 1553 1554 1554 1555 1555 1556 1556 1556 1557 1557 1558 1558 1558 1558 1558 1559 1559 1560 1560 1561 1562 1563 1563 1564 1565 1565 1566 1566 1567 1567 1568 1568 1568 1568 1568 1568 1567 1568 1569 1569 1569 1568 1568 1568 1567 1567 1566 1566 1565 1565 1564 1563 1563 1562 1562 1561 1560 1559 1558 1557 1556 1555
1524 1526 1528 1529 1530 1531 1533 1535 1537 1539 1541 1542 1543 1544 1545 1547 1548 1549 1549 1550 1551 1552 1552 1553 1554 1554 1555 1555 1556 1556 1556 1557 1557 1558 1558 1558 1558 1559 1559 1559 1560 1560 1561 1562 1563 1563 1564 1564 1565 1565 1566 1567 1567 1568 1568 1568 1568 1568 1567 1568 1569 1569 1569 1569 1568 1568 1567 1567 1567 1566 1566 1565 1565 1564 1563 1563 1562 1562 1561 1560 1559 1558 1557 1556 1555
1523 1524 1526 1528 1528 1530 1532 1534 1536 1538 1540 1541 1543 1544 1545 1546 1547 1548 1549 1550 1550 1551 1552 1553 1553 1554 1555 1555 1556 1556 1556 1557 1558 1558 1558 1558 1558 1559 1559 1559 1560 1560 1561 1562 1562 1563 1564 1564 1565 1566 1566 1567 1568 1568 1568 1568 1568 1568 1568 1568 1569 1569 1569 1568 1568 1568 1567 1567 1566 1566 1566 1565 1564 1564 1564 1563 1563 1562 1561 1560 1559 1558 1557 1556 1555
1521 1523 1525 1527 1528 1530 1532 1534 1535 1537 1539 1540 1542 1543 1545 1546 1547 1547 1548 1549 1550 1551 1551 1552 1553 1554 1554 1555 1555 1556 1556 1557 1558 1558 1558 1558 1559 1559 1559 1560 1560 1560 1561 1561 1562 1563 1563 1564 1565 1566 1566 1567 1567 1567 1568 1568 1568 1568 1568 1568 1568 1568 1568 1568 1567 1567 1567 1566 1566 1566 1565 1565 1564 1564 1564 1563 1563 1562 1561 1560 1558 1558 1557 1556 1555
1520 1522 1524 1526 1527 1529 1531 1533 1535 1536 1538 1539 1541 1542 1544 1545 1546 1547 1548 1549 1549 1550 1551 1552 1552 1553 1554 1555 1555 1556 1556 1557 1557 1558 1558 1559 1559 1559 1560 1560 1560 1561 1561 1561 1562 1562 1563 1564 1564 1565 1566 1566 1567 1567 1567 1568 1568 1568 1568 1568 1568 1568 1568 1567 1567 1567 1567 1566 1566 1566 1565 1565 1564 1564 1563 1563 1563 1562 1561 1560 1558 1558 1557 1556 1555
1518 1521 1523 1525 1527 1529 1531 1533 1534 1535 1537 1539 1540 1542 1543 1544 1545 1546 1547 1548 1549 1549 1550 1551 1551 1552 1553 1554 1555 1555 1556 1556 1557 1558 1558 1559 1559 1559 1560 1560 1560 1561 1561 1561 1561 1562 1563 1563 1564 1565 1565 1566 1566 1567 1567 1568 1567 1568 1568 1568 1568 1567 1567 1567 1567 1566 1566 1566 1566 1565 1565 1565 1564 1564 1563 1563 1562 1562 1561 1559 1558 1558 1557 1556 1555
1516 1519 1522 1524 1526 1529 1531 1532 1534 1535 1537 1538 1540 1541 1542 1543 1544 1545 1546 1547 1548 1549 1549 1550 1551 1552 1553 1554 1554 1555 1556 1556 1557 1557 1558 1558 1559 1559 1560 1560 1561 1561 1561 1561 1562 1562 1563 1563 1564 1564 1565 1565 1566 1567 1567 1567 1567 1567 1567 1567 1567 1567 1567 1567 1566 1566 1566 1566 1566 1566 1565 1565 1564 1563 1563 1562 1562 1561 1561 1559 1558 1557 1557 1556 1555
1514 1517 1520 1523 1525 1528 1530 1532 1533 1534 1536 1537 1539 1540 1541 1542 1543 1545 1546 1547 1547 1548 1548 1549 1550 1551 1552 1553 1554 1554 1555 1555 1556 1557 1557 1558 1558 1559 1559 1560 1561 1561 1561 1562 1562 1562 1563 1563 1564 1564 1564 1565 1566 1566 1567 1567 1566 1566 1567 1567 1567 1567 1566 1566 1566 1566 1566 1566 1566 1566 1565 1564 1564 1563 1562 1562 1561 1561 1560 1559 1558 1557 1557 1556 1555
1511 1515 1518 1521 1524 1527 1529 1531 1532 1533 1535 1536 1538 1539 1540 1541 1543 1544 1545 1546 1547 1547 1548 1549 1550 1551 1552 1553 1553 1554 1554 1555 1556 1556 1557 1557 1558 1559 1559 1560 1560 1561 1561 1562 1562 1562 1563 1563 1564 1564 1564 1564 1565 1565 1566 1566 1566 1566 1567 1567 1567 1566 1566 1566 1565 1565 1565 1566 1566 1566 1565 1564 1563 1563 1562 1562 1561 1560 1560 1559 1558 1557 1557 1556 1554
1510 1513 1516 1519 1522 1525 1528 1530 1531 1532 1534 1535 1536 1538 1539 1540 1542 1543 1544 1545 1546 1547 1548 1549 1550 1550 1551 1552 1552 1553 1553 1554 1555 1556 1556 1557 1557 1558 1558 1559 1560 1560 1561 1561 1562 1562 1562 1563 1563 1563 1564 1564 1564 1565 1565 1566 1566 1565 1566 1567 1567 1566 1566 1565 1565 1565 1565 1565 1566 1566 1565 1564 1563 1563 1562 1561 1561 1560 1560 1559 1558 1557 1556 1555 1554
1509 1511 1514 1517 1521 1524 1526 1528 1530 1531 1532 1533 1535 1536 1538 1539 1541 1542 1543 1543 1545 1546 1547 1549 1549 1549 1550 1551 1551 1552 1553 1554 1554 1555 1556 1556 1557 1557 1558 1558 1559 1560 1560 1560 1561 1561 1562 1562 1563 1564 1564 1564 1563 1564 1565 1565 1565 1566 1566 1566 1567 1566 1566 1565 1565 1565 1565 1565 1565 1565 1565 1564 1563 1562 1562 1561 1561 1560 1560 1559 1558 1557 1557 1556 1555
1507 1509 1512 1516 1519 1522 1524 1527 1529 1530 1531 1532 1533 1535 1536 1538 1540 1541 1541 1542 1544 1545 1547 1547 1547 1548 1549 1550 1551 1552 1552 1553 1554 1554 1555 1556 1556 1556 1557 1558 1559 1559 1560 1560 1560 1561 1562 1562 1563 1563 1563 1563 1563 1563 1564 1564 1565 1565 1565 1566 1566 1566 1566 1566 1565 1565 1565 1565 1565 1565 1565 1564 1563 1563 1562 1562 1561 1560 1560 1559 1558 1558 1557 1556 1555
1505 1508 1511 1514 1517 1519 1522 1524 1527 1528 1529 1531 1532 1534 1535 1537 1538 1539 1540 1541 1543 1545 1546 1546 1546 1548 1549 1549 1551 1551 1552 1553 1553 1553 1555 1555 1556 1556 1557 1557 1558 1559 1559 1559 1560 1561 1561 1562 1562 1563 1563 1563 1563 1563 1564 1564 1565 1565 1565 1566 1566 1566 1566 1566 1566 1565 1565 1565 1565 1565 1564 1564 1564 1563 1562 1561 1561 1560 1560 1559 1558 1558 1557 1556 1555
1504 1507 1510 1513 1516 1518 1520 1522 1524 1526 1528 1529 1531 1532 1534 1536 1537 1538 1539 1540 1542 1544 1545 1545 1546 1547 1548 1549 1550 1551 1552 1552 1552 1553 1554 1554 1555 1556 1556 1557 1557 1558 1558 1559 1560 1560 1561 1561 1562 1562 1563 1563 1563 1564 1564 1564 1564 1565 1565 1565 1565 1566 1566 1566 1566 1566 1565 1565 1564 1564 1564 1564 1563 1563 1562 1561 1561 1560 1560 1559 1559 1558 1557 1556 1555
1503 1505 1508 1512 1515 1517 1518 1519 1521 1523 1525 1527 1529 1531 1533 1535 1536 1537 1538 1540 1541 1542 1544 1545 1546 1547 1547 1548 1549 1550 1551 1551 1551 1552 1553 1554 1554 1555 1556 1556 1557 1557 1558 1558 1559 1560 1560 1561 1561 1561 1562 1563 1563 1564 1564 1564 1565 1565 1565 1565 1566 1566 1566 1566 1566 1565 1565 1564 1564 1563 1563 1563 1563 1563 1562 1562 1561 1561 1560 1560 1559 1558 1557 1556 1555
1500 1503 1507 1511 1514 1516 1517 1518 1520 1522 1524 1526 1528 1531 1533 1534 1535 1536 1538 1539 1540 1541 1543 1544 1545 1546 1546 1548 1549 1549 1550 1550 1551 1551 1552 1553 1554 1555 1555 1556 1556 1557 1557 1557 1558 1559 1560 1560 1561 1561 1561 1562 1563 1563 1564 1565 1565 1565 1566 1566 1566 1566 1566 1566 1566 1565 1564 1564 1563 1563 1563 1563 1563 1563 1562 1562 1561 1561 1561 1560 1560 1559 1558 1557 1556
1498 1502 1505 1508 1512 1515 1516 1517 1518 1520 1522 1525 1527 1530 1531 1533 1534 1536 1537 1538 1539 1541 1542 1543 1544 1545 1546 1547 1548 1549 1549 1549 1550 1551 1551 1552 1553 1554 1555 1556 1556 1556 1556 1557 1558 1559 1559 1560 1560 1561 1561 1562 1562 1563 1564 1565 1565 1566 1566 1566 1566 1566 1566 1566 1566 1566 1565 1564 1564 1564 1563 1563 1563 1562 1562 1562 1562 1561 1561 1561 1560 1559 1558 1557 1556
1497 1500 1503 1506 1510 1513 1514 1516 1517 1519 1521 1523 1526 1528 1530 1532 1533 1535 1536 1537 1538 1540 1541 1542 1543 1544 1545 1546 1547 1548 1548 1549 1549 1550 1551 1551 1552 1553 1554 1555 1555 1555 1556 1557 1558 1558 1559 1559 1560 1560 1561 1562 1562 1563 1564 1565 1565 1565 1566 1566 1566 1566 1566 1566 1566 1566 1566 1565 1565 1565 1564 1564 1563 1563 1562 1562 1562 1562 1561 1561 1560 1559 1558 1557 1556
1495 1499 1502 1505 1509 1511 1513 1514 1516 1518 1520 1522 1525 1527 1529 1531 1532 1534 1535 1536 1537 1538 1539 1540 1542 1543 1544 1546 1546 1547 1547 1548 1549 1550 1550 1551 1552 1553 1553 1554 1554 1555 1556 1556 1557 1558 1558 1558 1559 1560 1560 1561 1562 1563 1564 1564 1565 1565 1565 1565 1566 1566 1566 1566 1566 1566 1566 1566 1565 1565 1564 1564 1564 1563 1563 1562 1562 1562 1561 1561 1560 1559 1558 1557 1556
1493 1496 1500 1504 1507 1509 1511 1513 1514 1516 1518 1520 1523 1525 1527 1528 1530 1531 1532 1533 1535 1536 1538 1539 1540 1542 1543 1545 1545 1545 1546 1547 1548 1549 1550 1551 1551 1552 1552 1553 1554 1554 1555 1556 1556 1557 1557 1557 1558 1559 1559 1560 1561 1563 1563 1564 1564 1564 1564 1565 1565 1565 1566 1566 1566 1566 1565 1565 1565 1565 1564 1564 1564 1564 1563 1563 1563 1562 1562 1561 1560 1559 1558 1557 1557
1491 1494 1497 1501 1504 1507 1509 1511 1513 1515 1516 1518 1520 1521 1523 1524 1526 1528 1529 1531 1533 1534 1536 1537 1539 1541 1543 1544 1544 1544 1545 1545 1546 1548 1549 1550 1551 1552 1552 1552 1553 1553 1554 1555 1555 1556 1556 1556 1557 1558 1558 1559 1560 1561 1562 1563 1563 1563 1564 1564 1565 1565 1565 1566 1566 1565 1565 1565 1565 1565 1564 1564 1564 1564 1564 1564 1563 1562 1562 1561 1560 1559 1558 1558 1557
1487 1489 1493 1497 1502 1505 1507 1509 1511 1513 1514 1516 1518 1519 1520 1522 1523 1525 1528 1530 1531 1532 1533 1536 1538 1540 1541 1542 1543 1544 1544 1545 1545 1546 1548 1549 1550 1551 1551 1551 1552 1553 1553 1554 1555 1555 1555 1555 1555 1556 1557 1558 1560 1561 1561 1562 1562 1562 1563 1563 1564 1565 1565 1565 1565 1565 1565 1565 1565 1564 1564 1564 1564 1564 1564 1564 1563 1563 1562 1562 1561 1560 1559 1558 1557
1483 1486 1490 1494 1499 1502 1505 1507 1510 1511 1513 1515 1516 1518 1520 1522 1523 1526 1528 1529 1531 1532 1533 1535 1537 1538 1540 1541 1542 1543 1543 1544 1545 1545 1546 1547 1548 1549 1550 1550 1551 1552 1552 1553 1554 1554 1554 1555 1555 1555 1556 1557 1559 1560 1560 1561 1561 1562 1563 1563 1564 1564 1564 1565 1565 1565 1565 1564 1565 1564 1564 1564 1564 1564 1564 1564 1563 1563 1562 1562 1561 1560 1558 1557 1556
1481 1483 1486 1490 1494 1498 1502 1504 1507 1509 1511 1514 1516 1518 1520 1522 1525 1527 1528 1529 1530 1531 1533 1534 1536 1537 1539 1540 1541 1542 1542 1543 1544 1545 1545 1546 1547 1548 1549 1550 1550 1551 1552 1553 1553 1553 1553 1553 1554 1554 1555 1556 1557 1558 1559 1559 1560 1561 1562 1562 1563 1564 1564 1564 1564 1564 1564 1564 1564 1564 1564 1564 1564 1564 1564 1563 1563 1563 1563 1562 1561 1559 1558 1557 1556
1478 1478 1481 1486 1490 1494 1498 1501 1504 1507 1509 1512 1514 1516 1519 1521 1523 1526 1527 1528 1529 1530 1530 1532 1533 1535 1537 1538 1540 1541 1541 1542 1543 1544 1545 1545 1546 1547 1548 1549 1550 1551 1552 1552 1553 1553 1552 1552 1553 1553 1554 1555 1556 1557 1557 1558 1559 1560 1560 1561 1562 1562 1562 1562 1563 1563 1564 1564 1564 1564 1564 1564 1564 1564 1564 1563 1563 1563 1563 1562 1560 1559 1558 1557 1556
1473 1475 1478 1483 1488 1492 1496 1499 1501 1504 1507 1510 1512 1514 1517 1518 1520 1521 1522 1524 1525 1526 1527 1529 1531 1533 1535 1537 1538 1539 1540 1541 1542 1543 1544 1545 1545 1546 1547 1548 1549 1550 1551 1551 1552 1552 1551 1551 1551 1553 1554 1555 1555 1556 1556 1557 1558 1559 1559 1559 1560 1560 1560 1561 1561 1562 1563 1563 1564 1564 1564 1564 1564 1564 1564 1563 1563 1563 1563 1562 1560 1559 1558 1557 1556
1470 1473 1477 1482 1486 1490 1493 1496 1498 1501 1505 1507 1509 1512 1514 1516 1517 1518 1520 1521 1522 1524 1526 1528 1531 1533 1535 1536 1537 1538 1539 1540 1541 1542 1543 1544 1545 1546 1546 1547 1548 1548 1549 1550 1550 1550 1550 1550 1550 1552 1553 1554 1555 1555 1555 1556 1557 1557 1558 1558 1558 1559 1559 1559 1560 1561 1562 1563 1563 1563 1563 1563 1563 1563 1563 1563 1563 1563 1562 1561 1560 1559 1558 1557 1556
1467 1470 1475 1479 1483 1487 1490 1493 1496 1499 1502 1504 1507 1509 1512 1514 1515 1517 1519 1521 1522 1524 1526 1528 1530 1532 1533 1534 1535 1536 1537 1539 1540 1541 1542 1543 1544 1545 1546 1546 1547 1547 1548 1549 1549 1549 1549 1550 1550 1551 1552 1553 1554 1554 1555 1555 1555 1556 1557 1557 1557 1558 1558 1558 1558 1559 1560 1561 1562 1562 1562 1562 1563 1563 1563 1563 1563 1563 1562 1561 1560 1559 1558 1557 1556
1464 1467 1471 1476 1480 1485 1488 1491 1494 1497 1499 1502 1505 1507 1510 1512 1514 1516 1518 1520 1522 1523 1525 1527 1529 1530 1531 1533 1534 1535 1536 1537 1539 1540 1541 1542 1543 1544 1545 1546 1546 1547 1547 1547 1548 1548 1548 1549 1550 1551 1551 1552 1553 1553 1554 1554 1554 1555 1555 1555 1556 1556 1556 1557 1557 1558 1559 1560 1560 1561 1561 1561 1562 1562 1563 1563 1563 1562 1562 1561 1560 1559 1558 1557 1556
1461 1465 1469 1474 1479 1482 1486 1488 1491 1494 1496 1499 1502 1505 1508 1510 1512 1514 1516 1518 1520 1522 1524 1525 1527 1528 1530 1531 1532 1533 1535 1536 1537 1539 1540 1541 1542 1543 1544 1544 1545 1546 1547 1546 1547 1547 1548 1549 1550 1550 1551 1551 1552 1552 1552 1553 1553 1554 1554 1554 1554 1555 1555 1555 1556 1556 1557 1558 1559 1559 1560 1561 1561 1562 1562 1563 1562 1562 1561 1560 1560 1559 1558 1557 1556
1459 1463 1468 1472 1476 1480 1483 1486 1488 1491 1494 1497 1500 1502 1505 1507 1510 1512 1514 1516 1518 1519 1521 1523 1524 1526 1528 1529 1530 1532 1533 1534 1536 1537 1538 1539 1540 1542 1542 1543 1544 1546 1546 1546 1546 1547 1547 1548 1549 1549 1550 1550 1551 1551 1551 1552 1552 1553 1553 1553 1553 1553 1554 1554 1554 1555 1556 1557 1558 1558 1559 1560 1561 1561 1562 1562 1561 1561 1560 1560 1559 1558 1558 1557 1556